Regional Weather Roundup
Issued by NWS State College, PA

Home | Current Version | Previous Version | Graphics & Text | Print | Product List | Glossary Off
Versions: 1 2 3 4 5 6 7 8 9 10 11 12 13 14 15 16 17 18 19 20 21 22 23 24 25 26 27 28 29 30 31 32 33 34 35 36 37 38 39 40 41 42 43 44 45 46 47 48 49 50

000
ASUS41 KCTP 231210
RWRCTP

REGIONAL WEATHER ROUNDUP
NATIONAL WEATHER SERVICE STATE COLLEGE PA
700 AM EST SUN NOV 23 2014

Note: "fair" indicates few or no clouds below 12,000 feet with no
significant weather and/or obstructions to visibility.

* = STATION THAT DOES NOT REPORT PRECIPITATION /E.G. RAIN...SNOW...ETC/
    THUNDER OR FOG.

PAZ002>004-007>009-013>016-020>023-029>032-231300-
WESTERN PENNSYLVANIA

CITY           SKY/WX    TMP DP  RH WIND       PRES   REMARKS
ERIE           CLOUDY    49  33  54 S15G23    30.03R
MEADVILLE      LGT RAIN  43  34  70 S8        30.06R
FRANKLIN*      CLOUDY    43  34  70 SW6       30.09R
NEW CASTLE     LGT RAIN  40  38  93 CALM      30.10R
BEAVER COUNTY  NOT AVBL
BUTLER*        CLOUDY    45  32  61 SE6       30.10S
PITTSBURGH INT CLOUDY    47  31  53 SE5       30.09R
PITTSBURGH     CLOUDY    47  22  37 S8        30.09S
INDIANA*       CLOUDY    43  32  65 E3        30.14F
LATROBE        CLOUDY    45  30  57 CALM      30.13S
WASHINGTON CO* MOCLDY    41  27  56 CALM      30.12R
$$

PAZ004>006-010>012-017>019-024>028-033>037-041-042-045-046-049>053-231300-
CENTRAL PENNSYLVANIA

CITY           SKY/WX    TMP DP  RH WIND       PRES   REMARKS
BRADFORD       CLOUDY    43  30  60 SW6       30.07R
DUBOIS         CLOUDY    45  33  63 S6        30.09R
CLEARFIELD     CLOUDY    36  34  92 W3        30.12R
JOHNSTOWN      CLOUDY    47  26  44 SW8       30.11S
ALTOONA        CLOUDY    46  29  51 CALM      30.12S
STATE COLLEGE  MOCLDY    32  28  86 CALM      30.14R
WILLIAMSPORT   LGT RAIN  33  29  85 CALM      30.18R
SELINSGROVE    PTCLDY    35  25  66 CALM      30.18R
FT INDIANTOWN  CLOUDY    33  25  73 E2        30.20R
CAPITAL CITY   MOCLDY    34  24  67 CALM      30.20R
HARRISBURG     PTCLDY    31  23  72 E3        30.20R
YORK           PTCLDY    28  22  78 SW3       30.20R
$$

PAZ038>040-043-044-047-048-054-055-060>062-067>071-231300-
EASTERN PENNSYLVANIA

CITY           SKY/WX    TMP DP  RH WIND       PRES   REMARKS
SCRANTON       CLOUDY    40  19  43 SW6       30.14R
MOUNT POCONO   CLOUDY    40  18  41 W8        30.12R
ALLENTOWN      CLOUDY    34  25  69 SW5       30.21R
QUAKERTOWN*    CLOUDY    37  23  56 CALM      30.20R
READING        CLOUDY    39  24  55 CALM      30.21R
LANCASTER      CLOUDY    34  26  72 CALM      30.21R
COATESVILLE    PTSUNNY   39  21  48 SW5       30.21R
POTTSTOWN      CLOUDY    38  23  55 CALM      30.21S
BLUE BELL      CLOUDY    39  28  65 SW3       30.21R
DOYLESTOWN     CLOUDY    38  23  55 CALM      30.19R
WILLOW GROVE   NOT AVBL
NORTH PHILA    CLOUDY    42  23  46 SW5       30.24R
PHILADELPHIA   MOCLDY    41  24  51 S8        30.24R
$$


USA.gov is the U.S. government's official web portal to all federal, state and local government web resources and services.